Regional Weather Roundup
Issued by NWS

Home | Current Version | Previous Version | Graphics & Text | Print | Product List | Glossary On
Versions: 1 2 3 4 5 6 7 8 9 10 11 12 13 14 15 16 17 18 19 20 21 22 23 24 25 26 27 28 29 30 31 32 33 34 35 36 37 38 39 40 41 42 43 44 45 46 47 48 49 50
520
ASUS43 KMPX 122001
RWRMN
WEATHER ROUNDUP FOR MINNESOTA
NATIONAL WEATHER SERVICE TWIN CITIES/CHANHASSEN MN
200 PM CST FRI FEB 12 2016


NOTE: "FAIR" INDICATES FEW OR NO CLOUDS BELOW 12,000 FEET WITH NO
SIGNIFICANT WEATHER AND/OR OBSTRUCTIONS TO VISIBILITY. N/A MEANS
CURRENT SKY AND/OR WEATHER CONDITIONS ARE NOT AVAILABLE.

MNZ060>063-068>070-122100-
   Twin Cities Metro

CITY           SKY/WX    TMP DP  RH WIND       PRES   REMARKS
TWIN CITIES    SUNNY     10  -9  42 NW17G29   30.46R WCI  -8
ST PAUL        SUNNY     10  -8  44 NW18G29   30.47R WCI  -8
CRYSTAL        SUNNY     10  -8  44 NW21G26   30.46R WCI  -9
BLAINE         SUNNY     10  -8  44 NW18      30.45R WCI  -8
LAKEVILLE      SUNNY      9  -6  52 NW20G25   30.43R WCI -11
EDEN PRAIRIE   SUNNY      9  -9  44 NW16G28   30.46R WCI  -8
SOUTH ST PAUL  SUNNY     11  -9  39 N16G23    30.45R WCI  -5
LAKE ELMO      FAIR      10  -8  44 NW17G23   30.44R WCI  -7
$$
MNZ001>005-007-008-013>017-022>024-027-028-122100-
   Northwest Minnesota

CITY           SKY/WX    TMP DP  RH WIND       PRES   REMARKS
BEMIDJI        SUNNY     -1 -14  53 NW13      30.50R WCI -20
HALLOCK        SUNNY     -6 -13  71 NW17      30.66S WCI -28
ROSEAU         SUNNY     -4 -15  59 NW12      30.57S WCI -22
WARROAD        SUNNY     -2 -17  50 NW13      30.54F WCI -21
THIEF RVR FALL SUNNY     -6 -22  45 NW13      30.60S WCI -25
CROOKSTON      MOSUNNY   -2 -11  65 N16G22    30.66S WCI -23
FOSSTON          N/A      0 -15  50 NW12      30.57S WCI -18
DETROIT LAKES  MOSUNNY    0  -8  71 NW15      30.56S WCI -20
MOORHEAD       SUNNY      0  -9  65 NW16      30.64S WCI -21
PARK RAPIDS    SUNNY      3 -15  43 N14       30.48R WCI -15
MAHNOMEN       FAIR      -3 -12  67 NW13      30.57S WCI -22
$$
MNZ006-009>011-018-025>026-122100-
   North Central Minnesota

CITY           SKY/WX    TMP DP  RH WIND       PRES   REMARKS
BAUDETTE       SUNNY     -5 -18  53 NW13      30.50S WCI -24
FLAG ISLAND    SUNNY     -6 -17  59 NW22      30.52S WCI -31
INTL FALLS     SUNNY     -4 -19  48 W16       30.45S WCI -25
WASKISH        SUNNY     -2 -15  55 W12       30.51S WCI -20
LONGVILLE      SUNNY      0 -15  50 NW10G16   30.48S WCI -17
GRAND RAPIDS   SUNNY      0 -15  50 NW16G22   30.43S WCI -21
ORR            SUNNY     -2 -20  42 NW13G18   30.39R WCI -21
COOK           SUNNY     -2 -18  46 W12G21    30.41R WCI -20
WALKER         FAIR       0 -16  48 NW14      30.48S WCI -19
$$
MNZ012-019>021-037-122100-
   Northeast Minnesota

CITY           SKY/WX    TMP DP  RH WIND       PRES   REMARKS
DULUTH         MOSUNNY    0 -17  44 NW14G29   30.35R WCI -19
ELY            SUNNY     -2 -17  50 NW9G21    30.35R WCI -18
HIBBING        SUNNY     -2 -16  51 NW17      30.40S WCI -23
EVELETH        SUNNY      0 -17  46 NW15G21   30.39S WCI -20
DULUTH HARBOR  SUNNY      7 -13  40 N13G24    30.46S WCI  -9
TWO HARBORS    SUNNY      5 -15  39 NW12G21   30.35S WCI -11
SILVER BAY     SUNNY      3 -17  39 W8G18     30.33S WCI -10
GRAND MARAIS     N/A      1 -18  40 N12G18    30.36S WCI -16
G MARAIS ARPRT SUNNY     -8 -20  54 NW12G28   30.19S WCI -27
$$
MNZ029>031-032-039>041-046>048-054>057-064-122100-
   West Central Minnesota

CITY           SKY/WX    TMP DP  RH WIND       PRES   REMARKS
FERGUS FALLS   SUNNY      1  -9  60 N18G26    30.62S WCI -19
WHEATON        MOSUNNY    5  -2  72 NW16G23   30.62F WCI -14
MORRIS         SUNNY      5  -4  66 N21G28    30.56S WCI -16
ALEXANDRIA     SUNNY      3 -11  52 NW20      30.51S WCI -18
ELBOW LAKE     FAIR       2  -9  61 NW15G22   30.56F WCI -17
WADENA         SUNNY      1 -11  55 NW16      30.50S WCI -18
GLENWOOD       SUNNY      3  -9  55 NW16      30.52S WCI -16
APPLETON       PTSUNNY    7  -2  66 NW20      30.58F WCI -13
BENSON         SUNNY      7  -6  56 N12G23    30.55F WCI  -9
MADISON        MOSUNNY    7  -2  66 N20       30.58F WCI -13
WILLMAR        FAIR       9  -4  56 N16       30.53S WCI  -9
$$
MNZ033>034-036-042>043-049>051-058-059-122100-
   Central Minnesota

CITY           SKY/WX    TMP DP  RH WIND       PRES   REMARKS
ST CLOUD       SUNNY      6 -11  45 N17G24    30.49R WCI -13
SAUK CENTRE    FAIR       4  -8  55 NW16      30.51S WCI -14
PAYNESVILLE    SUNNY      6  -7  56 NW13G20   30.51S WCI -10
AITKIN         SUNNY      5 -18  33 NW9G16    30.45R WCI  -9
PINE RIVER       N/A      1 -13  51 NW12G17   30.50R WCI -15
BRAINERD       SUNNY      4 -14  43 NW15      30.48R WCI -14
STAPLES        SUNNY      3 -11  51 NW12G18   30.49S WCI -13
LONG PRAIRIE   FAIR       3  -9  55 NW14      30.50S WCI -15
LITTLE FALLS   SUNNY      7 -15  36 NW9       30.50R WCI  -7
LITCHFIELD     SUNNY      9  -6  52 NW18      30.50S WCI -10
BUFFALO        SUNNY      9  -8  46 NW13G20   30.50R WCI  -7
MAPLE LAKE     SUNNY     10  -5  51 NW13G21   30.50R WCI  -6
$$
MNZ037-044-045-052-053-122100-
   East Central Minnesota

CITY           SKY/WX    TMP DP  RH WIND       PRES   REMARKS
PRINCETON      SUNNY      9  -9  43 NW13G22   30.47R WCI  -7
MORA           SUNNY      7  -9  47 N10G21    30.47S WCI  -8
CAMBRIDGE      SUNNY      9  -8  47 NW16G22   30.45R WCI  -9
RUSH CITY      SUNNY      8 -11  42 NW15G22   30.45S WCI -10
MOOSE LAKE     SUNNY      5 -15  39 N12G18    30.42R WCI -11
HINCKLEY       FAIR       7 -11  43 NW17G24   30.44R WCI -12
CLOQUET        SUNNY      1 -18  39 W17       30.39S WCI -19
MCGREGOR       SUNNY      5 -13  43 NW14G22   30.45R WCI -12
$$
MNZ071>073-080-081-089-090-097-098-122100-
   Southwest Minnesota

CITY           SKY/WX    TMP DP  RH WIND       PRES   REMARKS
MONTEVIDEO     PTSUNNY    9   0  66 N20G25    30.57F WCI -11
GRANITE FALLS  PTSUNNY    9   1  70 NW18G24   30.58S WCI -10
CANBY          MOSUNNY    9  -1  64 NW15      30.58S WCI  -8
MARSHALL       LGT SNOW   6  -1  73 N21G26    30.54S WCI -14
REDWOOD FALLS  PTSUNNY    9  -3  58 NW21G29   30.53R WCI -11
OLIVIA         SUNNY     12   0  57 NW20G28   30.52R WCI  -6
PIPESTONE      SUNNY     10  -8  44 N16G23    30.50R WCI  -7
WINDOM         MOSUNNY    7   0  72 NW24      30.48S HAZE    WCI -15
WORTHINGTON    SUNNY      7  -2  66 NW21      30.50R WCI -13
JACKSON        SUNNY     10  -2  56 N18G32    30.47R HAZE    WCI  -8
TRACY          SUNNY      8   0  69 NW20G29   30.52S WCI -11
SLAYTON        SUNNY      6  -2  69 NW18G24   30.49S WCI -14
$$
MNZ065>067-074>077-082>085-091>093-122100-
   South Central Minnesota

CITY           SKY/WX    TMP DP  RH WIND       PRES   REMARKS
MANKATO        SUNNY     10  -4  52 NW22G29   30.46R WCI  -9
NEW ULM        SUNNY     10  -4  52 NW23G30   30.48S WCI -10
ST JAMES       SUNNY     10   1  67 NW23G29   30.50R WCI -10
FAIRMONT       PTSUNNY   10  -2  56 NW28      30.46R WCI -11
GLENCOE        SUNNY     10  -2  59 NW18      30.48S WCI  -9
OWATONNA       SUNNY      9  -6  52 NW25      30.42R WCI -13
WASECA         SUNNY     12   1  62 NW21      30.45R WCI  -6
ALBERT LEA     SUNNY     10  -2  56 NW15G24   30.40S WCI  -6
$$
MNZ078>079-086>088-094>096-122100-
   Southeast Minnesota

CITY           SKY/WX    TMP DP  RH WIND       PRES   REMARKS
ROCHESTER      SUNNY      9  -3  58 NW25      30.35R WCI -12
RED WING       SUNNY     12  -9  37 NW13G20   30.41S WCI  -3
STANTON        SUNNY     12  -5  46 NW18      30.42R WCI  -6
DODGE CENTER   SUNNY     10  -6  48 N24       30.37R WCI -10
WINONA         SUNNY     14   0  52 NW21G28   30.39R WCI  -4
AUSTIN         SUNNY     10  -2  56 NW22G28   30.38R WCI  -9
PRESTON        SUNNY     10  -3  55 NW20      30.34R WCI  -8
$$
ABBREVIATIONS USED IN REMARKS
   TC - TEMPERATURES IN CELSIUS
  WCI - WIND CHILL INDEX
   HX - HEAT INDEX
  VSB - VISIBILITY
$$




USA.gov is the U.S. government's official web portal to all federal, state and local government web resources and services.